Location: Holyhead Bay
(53.3667°N, 4.6667°W)
Time: 19:39:15
(UTC+00:00)

ARGOS - Pass Details

Date: 24 November 2020
Orbit: 820 x 835 km, 98.4° (Epoch: 17 January)

Event Time Altitude Azimuth Distance (km) Brightness Sun altitude
Exits shadow 18:38:29 45° 85° (E) 1,129 3.4 -21.4°
Maximum altitude 18:39:05 47° 65° (ENE) 1,100 3.3 -21.4°
Drops below altitude 10° 18:44:15 10° 353° (N) 2,449 5.6 -22.2°
Sets 18:46:41 0° 348° (NNW) 3,385 6.4 -22.6°
